Time,TemperatureF,DewpointF,PressureIn,WindDirection,WindDirectionDegrees,WindSpeedMPH,WindSpeedGustMPH,Humidity,HourlyPrecipIn,Conditions,Clouds,dailyrainin,SoftwareType,DateUTC
2013-01-08 00:00:00,33.3,15.7,30.40,NNW,342,0.0,0.0,48,0.00,,,0.00,VWS V14.00,2013-01-08 05:00:00,
2013-01-08 00:03:00,33.3,15.7,30.40,NNW,342,0.0,0.0,48,0.00,,,0.00,VWS V14.00,2013-01-08 05:03:00,
2013-01-08 00:08:00,33.3,16.2,30.40,NNW,342,0.0,0.0,49,0.00,,,0.00,VWS V14.00,2013-01-08 05:08:00,
2013-01-08 00:13:00,33.1,16.0,30.40,NNW,342,0.0,0.0,49,0.00,,,0.00,VWS V14.00,2013-01-08 05:13:00,
2013-01-08 00:18:00,33.1,16.0,30.40,NNW,342,0.0,0.0,49,0.00,,,0.00,VWS V14.00,2013-01-08 05:18:00,
2013-01-08 00:23:00,33.3,16.6,30.40,NNW,342,0.0,0.0,50,0.00,,,0.00,VWS V14.00,2013-01-08 05:23:00,
2013-01-08 00:28:00,33.8,17.1,30.40,NNW,342,0.0,0.0,50,0.00,,,0.00,VWS V14.00,2013-01-08 05:28:00,
2013-01-08 00:33:00,34.0,17.3,30.40,NNW,342,0.0,0.0,50,0.00,,,0.00,VWS V14.00,2013-01-08 05:33:00,
2013-01-08 00:38:00,34.0,17.3,30.40,NNW,342,0.0,0.0,50,0.00,,,0.00,VWS V14.00,2013-01-08 05:38:00,
2013-01-08 00:44:00,34.0,17.3,30.40,NNW,342,0.0,0.0,50,0.00,,,0.00,VWS V14.00,2013-01-08 05:44:00,
2013-01-08 00:49:00,34.0,17.3,30.40,NNW,342,0.0,0.0,50,0.00,,,0.00,VWS V14.00,2013-01-08 05:49:00,
2013-01-08 00:54:00,33.8,17.1,30.40,NNW,342,0.0,0.0,50,0.00,,,0.00,VWS V14.00,2013-01-08 05:54:00,
2013-01-08 00:59:00,33.8,17.1,30.40,NNW,342,0.0,0.0,50,0.00,,,0.00,VWS V14.00,2013-01-08 05:59:00,
2013-01-08 01:04:00,33.6,17.4,30.40,NNW,342,3.1,3.1,51,0.00,,,0.00,VWS V14.00,2013-01-08 06:04:00,
2013-01-08 01:09:00,33.6,17.4,30.40,NNW,342,2.7,2.7,51,0.00,,,0.00,VWS V14.00,2013-01-08 06:09:00,
2013-01-08 01:14:00,33.8,17.6,30.40,NNW,342,2.7,3.1,51,0.00,,,0.00,VWS V14.00,2013-01-08 06:14:00,
2013-01-08 01:19:00,34.0,18.2,30.40,NNW,342,3.1,3.1,52,0.00,,,0.00,VWS V14.00,2013-01-08 06:19:00,
2013-01-08 01:24:00,34.2,18.4,30.40,NNW,342,2.7,3.1,52,0.00,,,0.00,VWS V14.00,2013-01-08 06:24:00,
2013-01-08 01:29:00,34.2,18.4,30.40,NNW,342,0.0,0.0,52,0.00,,,0.00,VWS V14.00,2013-01-08 06:29:00,
2013-01-08 01:34:00,34.2,18.4,30.40,NNW,342,0.0,0.0,52,0.00,,,0.00,VWS V14.00,2013-01-08 06:34:00,
2013-01-08 01:39:00,34.3,18.5,30.40,NNW,342,0.0,0.0,52,0.00,,,0.00,VWS V14.00,2013-01-08 06:39:00,
2013-01-08 01:44:00,34.5,18.7,30.40,NNW,342,0.0,0.0,52,0.00,,,0.00,VWS V14.00,2013-01-08 06:44:00,
2013-01-08 01:49:00,34.7,18.4,30.40,NNW,342,2.7,3.1,51,0.00,,,0.00,VWS V14.00,2013-01-08 06:49:00,
2013-01-08 01:54:00,34.7,18.4,30.40,NNW,342,2.7,2.7,51,0.00,,,0.00,VWS V14.00,2013-01-08 06:54:00,
2013-01-08 01:59:00,34.7,18.0,30.40,NNW,342,2.2,2.2,50,0.00,,,0.00,VWS V14.00,2013-01-08 06:59:00,
2013-01-08 02:04:00,34.7,18.0,30.40,NNW,342,2.2,2.7,50,0.00,,,0.00,VWS V14.00,2013-01-08 07:04:00,
2013-01-08 02:09:00,34.5,17.8,30.40,NNW,342,2.7,3.1,50,0.00,,,0.00,VWS V14.00,2013-01-08 07:09:00,
2013-01-08 02:14:00,34.5,17.8,30.40,NNW,342,0.0,0.0,50,0.00,,,0.00,VWS V14.00,2013-01-08 07:14:00,
2013-01-08 02:19:00,34.3,17.2,30.40,NNW,342,0.0,0.0,49,0.00,,,0.00,VWS V14.00,2013-01-08 07:19:00,
2013-01-08 02:24:00,34.0,17.3,30.40,NNW,342,0.0,0.0,50,0.00,,,0.00,VWS V14.00,2013-01-08 07:24:00,
2013-01-08 02:29:00,34.0,17.3,30.40,NNW,342,0.0,0.0,50,0.00,,,0.00,VWS V14.00,2013-01-08 07:29:00,
2013-01-08 02:34:00,33.6,17.0,30.40,NNW,342,0.0,0.0,50,0.00,,,0.00,VWS V14.00,2013-01-08 07:34:00,
2013-01-08 02:39:00,33.3,17.1,30.40,NNW,342,0.0,0.0,51,0.00,,,0.00,VWS V14.00,2013-01-08 07:39:00,
2013-01-08 02:44:00,33.1,16.9,30.40,NNW,342,0.0,0.0,51,0.00,,,0.00,VWS V14.00,2013-01-08 07:44:00,
2013-01-08 02:49:00,32.9,16.8,30.40,NNW,342,0.0,0.0,51,0.00,,,0.00,VWS V14.00,2013-01-08 07:49:00,
2013-01-08 02:54:00,32.7,17.0,30.40,NNW,342,0.0,0.0,52,0.00,,,0.00,VWS V14.00,2013-01-08 07:54:00,
2013-01-08 02:59:00,32.7,17.0,30.40,NNW,342,0.0,0.0,52,0.00,,,0.00,VWS V14.00,2013-01-08 07:59:00,
2013-01-08 03:05:00,32.5,17.3,30.40,NNW,342,0.0,0.0,53,0.00,,,0.00,VWS V14.00,2013-01-08 08:05:00,
2013-01-08 03:10:00,32.5,17.3,30.40,NNW,342,0.0,0.0,53,0.00,,,0.00,VWS V14.00,2013-01-08 08:10:00,
2013-01-08 03:15:00,32.5,17.3,30.40,NNW,342,0.0,0.0,53,0.00,,,0.00,VWS V14.00,2013-01-08 08:15:00,
2013-01-08 03:20:00,32.5,17.8,30.40,NNW,342,0.0,0.0,54,0.00,,,0.00,VWS V14.00,2013-01-08 08:20:00,
2013-01-08 03:25:00,32.5,17.8,30.40,NNW,342,0.0,0.0,54,0.00,,,0.00,VWS V14.00,2013-01-08 08:25:00,
2013-01-08 03:30:00,32.4,17.6,30.40,NNW,342,0.0,0.0,54,0.00,,,0.00,VWS V14.00,2013-01-08 08:30:00,
2013-01-08 03:35:00,32.2,17.4,30.40,NNW,342,0.0,0.0,54,0.00,,,0.00,VWS V14.00,2013-01-08 08:35:00,
2013-01-08 03:40:00,32.0,17.2,30.40,NNW,342,0.0,0.0,54,0.00,,,0.00,VWS V14.00,2013-01-08 08:40:00,
2013-01-08 03:45:00,32.0,17.2,30.40,NNW,342,0.0,0.0,54,0.00,,,0.00,VWS V14.00,2013-01-08 08:45:00,
2013-01-08 03:50:00,32.4,18.0,30.40,NNW,342,0.0,0.0,55,0.00,,,0.00,VWS V14.00,2013-01-08 08:50:00,
2013-01-08 03:55:00,32.5,18.2,30.40,NNW,342,0.0,0.0,55,0.00,,,0.00,VWS V14.00,2013-01-08 08:55:00,
2013-01-08 04:00:00,32.4,17.6,30.40,NNW,342,0.0,0.0,54,0.00,,,0.00,VWS V14.00,2013-01-08 09:00:00,
2013-01-08 04:05:00,32.0,17.2,30.40,NNW,342,0.0,0.0,54,0.00,,,0.00,VWS V14.00,2013-01-08 09:05:00,
2013-01-08 04:10:00,31.6,16.9,30.40,NNW,342,0.0,0.0,54,0.00,,,0.00,VWS V14.00,2013-01-08 09:10:00,
2013-01-08 04:15:00,31.6,16.9,30.40,NNW,342,0.0,0.0,54,0.00,,,0.00,VWS V14.00,2013-01-08 09:15:00,
2013-01-08 04:20:00,31.6,16.9,30.40,NNW,342,0.0,0.0,54,0.00,,,0.00,VWS V14.00,2013-01-08 09:20:00,
2013-01-08 04:25:00,31.8,17.1,30.40,NNW,342,0.0,0.0,54,0.00,,,0.00,VWS V14.00,2013-01-08 09:25:00,
2013-01-08 04:30:00,31.8,17.1,30.40,NNW,342,0.0,0.0,54,0.00,,,0.00,VWS V14.00,2013-01-08 09:30:00,
2013-01-08 04:35:00,31.6,16.9,30.40,NNW,342,0.0,0.0,54,0.00,,,0.00,VWS V14.00,2013-01-08 09:35:00,
2013-01-08 04:40:00,31.1,16.0,30.40,NNW,342,0.0,0.0,53,0.00,,,0.00,VWS V14.00,2013-01-08 09:40:00,
2013-01-08 04:45:00,30.7,15.6,30.40,NNW,342,0.0,0.0,53,0.00,,,0.00,VWS V14.00,2013-01-08 09:45:00,
2013-01-08 04:50:00,30.4,15.3,30.40,NNW,342,0.0,0.0,53,0.00,,,0.00,VWS V14.00,2013-01-08 09:50:00,
2013-01-08 04:55:00,30.4,15.7,30.40,NNW,342,0.0,0.0,54,0.00,,,0.00,VWS V14.00,2013-01-08 09:55:00,
2013-01-08 05:00:00,30.2,15.6,30.40,NNW,342,0.0,0.0,54,0.00,,,0.00,VWS V14.00,2013-01-08 10:00:00,
2013-01-08 05:05:00,30.0,15.4,30.40,NNW,342,0.0,0.0,54,0.00,,,0.00,VWS V14.00,2013-01-08 10:05:00,
2013-01-08 05:10:00,29.8,15.7,30.40,NNW,342,0.0,0.0,55,0.00,,,0.00,VWS V14.00,2013-01-08 10:10:00,
2013-01-08 05:15:00,30.0,15.8,30.40,NNW,342,0.0,0.0,55,0.00,,,0.00,VWS V14.00,2013-01-08 10:15:00,
2013-01-08 05:21:00,29.8,15.7,30.40,NNW,342,0.0,0.0,55,0.00,,,0.00,VWS V14.00,2013-01-08 10:21:00,
2013-01-08 05:25:00,29.8,15.7,30.40,NNW,342,0.0,0.0,55,0.00,,,0.00,VWS V14.00,2013-01-08 10:25:00,
2013-01-08 05:30:00,29.8,15.7,30.40,NNW,342,0.0,0.0,55,0.00,,,0.00,VWS V14.00,2013-01-08 10:30:00,
2013-01-08 05:35:00,30.2,16.4,30.40,NNW,342,0.0,0.0,56,0.00,,,0.00,VWS V14.00,2013-01-08 10:35:00,
2013-01-08 05:40:00,30.4,16.2,30.40,NNW,342,0.0,0.0,55,0.00,,,0.00,VWS V14.00,2013-01-08 10:40:00,
2013-01-08 05:46:00,30.4,16.2,30.40,NNW,342,0.0,0.0,55,0.00,,,0.00,VWS V14.00,2013-01-08 10:46:00,
2013-01-08 05:51:00,30.2,16.0,30.40,NNW,342,0.0,0.0,55,0.00,,,0.00,VWS V14.00,2013-01-08 10:51:00,
2013-01-08 05:56:00,30.4,16.6,30.40,NNW,342,0.0,0.0,56,0.00,,,0.00,VWS V14.00,2013-01-08 10:56:00,
2013-01-08 06:01:00,30.7,16.9,30.40,NNW,342,0.0,0.0,56,0.00,,,0.00,VWS V14.00,2013-01-08 11:01:00,
2013-01-08 06:06:00,31.3,17.8,30.40,NNW,342,0.0,0.0,57,0.00,,,0.00,VWS V14.00,2013-01-08 11:06:00,
2013-01-08 06:11:00,31.1,17.2,30.40,NNW,342,0.0,0.0,56,0.00,,,0.00,VWS V14.00,2013-01-08 11:11:00,
2013-01-08 06:16:00,30.9,17.1,30.40,NNW,342,0.0,0.0,56,0.00,,,0.00,VWS V14.00,2013-01-08 11:16:00,
2013-01-08 06:21:00,30.7,16.9,30.40,NNW,342,0.0,0.0,56,0.00,,,0.00,VWS V14.00,2013-01-08 11:21:00,
2013-01-08 06:26:00,30.9,17.5,30.40,NNW,342,0.0,0.0,57,0.00,,,0.00,VWS V14.00,2013-01-08 11:26:00,
2013-01-08 06:31:00,31.1,17.7,30.40,NNW,342,0.0,0.0,57,0.00,,,0.00,VWS V14.00,2013-01-08 11:31:00,
2013-01-08 06:36:00,30.9,17.5,30.40,NNW,342,0.0,0.0,57,0.00,,,0.00,VWS V14.00,2013-01-08 11:36:00,
2013-01-08 06:41:00,30.2,16.4,30.40,NNW,342,0.0,0.0,56,0.00,,,0.00,VWS V14.00,2013-01-08 11:41:00,
2013-01-08 06:46:00,29.5,15.7,30.40,NNW,342,0.0,0.0,56,0.00,,,0.00,VWS V14.00,2013-01-08 11:46:00,
2013-01-08 06:51:00,29.1,15.4,30.40,NNW,342,0.0,0.0,56,0.00,,,0.00,VWS V14.00,2013-01-08 11:51:00,
2013-01-08 06:56:00,28.9,15.2,30.40,NNW,342,0.0,0.0,56,0.00,,,0.00,VWS V14.00,2013-01-08 11:56:00,
2013-01-08 07:01:00,29.3,16.0,30.40,NNW,342,0.0,0.0,57,0.00,,,0.00,VWS V14.00,2013-01-08 12:01:00,
2013-01-08 07:06:00,29.5,16.1,30.40,NNW,342,0.0,0.0,57,0.00,,,0.00,VWS V14.00,2013-01-08 12:06:00,
2013-01-08 07:11:00,29.5,16.5,30.40,NNW,342,0.0,0.0,58,0.00,,,0.00,VWS V14.00,2013-01-08 12:11:00,
2013-01-08 07:16:00,29.5,16.5,30.43,NNW,342,0.0,0.0,58,0.00,,,0.00,VWS V14.00,2013-01-08 12:16:00,
2013-01-08 07:21:00,29.5,16.5,30.43,NNW,342,0.0,0.0,58,0.00,,,0.00,VWS V14.00,2013-01-08 12:21:00,
2013-01-08 07:26:00,29.5,16.9,30.43,NNW,342,0.0,0.0,59,0.00,,,0.00,VWS V14.00,2013-01-08 12:26:00,
2013-01-08 07:31:00,29.8,17.3,30.43,NNW,342,0.0,0.0,59,0.00,,,0.00,VWS V14.00,2013-01-08 12:31:00,
2013-01-08 07:36:00,30.4,17.8,30.43,NNW,342,0.0,0.0,59,0.00,,,0.00,VWS V14.00,2013-01-08 12:36:00,
2013-01-08 07:41:00,30.7,18.1,30.43,NNW,342,0.0,0.0,59,0.00,,,0.00,VWS V14.00,2013-01-08 12:41:00,
2013-01-08 07:46:00,30.9,18.3,30.43,NNW,342,0.0,0.0,59,0.00,,,0.00,VWS V14.00,2013-01-08 12:46:00,
2013-01-08 07:51:00,31.1,18.5,30.43,NNW,342,0.0,0.0,59,0.00,,,0.00,VWS V14.00,2013-01-08 12:51:00,
2013-01-08 07:56:00,31.3,19.0,30.43,NNW,342,0.0,0.0,60,0.00,,,0.00,VWS V14.00,2013-01-08 12:56:00,
2013-01-08 08:01:00,31.6,19.4,30.43,NNW,342,0.0,0.0,60,0.00,,,0.00,VWS V14.00,2013-01-08 13:01:00,
2013-01-08 08:06:00,32.2,19.9,30.43,NNW,342,0.0,0.0,60,0.00,,,0.00,VWS V14.00,2013-01-08 13:06:00,
2013-01-08 08:11:00,32.2,19.5,30.43,NNW,342,0.0,0.0,59,0.00,,,0.00,VWS V14.00,2013-01-08 13:11:00,
2013-01-08 08:16:00,31.8,19.1,30.46,NNW,342,0.0,0.0,59,0.00,,,0.00,VWS V14.00,2013-01-08 13:16:00,
2013-01-08 08:21:00,31.8,19.1,30.46,NNW,342,0.0,0.0,59,0.00,,,0.00,VWS V14.00,2013-01-08 13:21:00,
2013-01-08 08:26:00,32.2,19.5,30.46,NNW,342,0.0,0.0,59,0.00,,,0.00,VWS V14.00,2013-01-08 13:26:00,
2013-01-08 08:31:00,32.4,19.6,30.43,NNW,342,0.0,0.0,59,0.00,,,0.00,VWS V14.00,2013-01-08 13:31:00,
2013-01-08 08:36:00,32.5,19.8,30.43,NNW,342,0.0,0.0,59,0.00,,,0.00,VWS V14.00,2013-01-08 13:36:00,
2013-01-08 08:41:00,32.5,19.8,30.43,NNW,342,0.0,0.0,59,0.00,,,0.00,VWS V14.00,2013-01-08 13:41:00,
2013-01-08 08:46:00,32.5,19.8,30.43,NNW,342,0.0,0.0,59,0.00,,,0.00,VWS V14.00,2013-01-08 13:46:00,
2013-01-08 08:51:00,32.5,19.8,30.43,NNW,342,0.0,0.0,59,0.00,,,0.00,VWS V14.00,2013-01-08 13:51:00,
2013-01-08 08:56:00,32.7,20.0,30.43,NNW,342,0.0,0.0,59,0.00,,,0.00,VWS V14.00,2013-01-08 13:56:00,
2013-01-08 09:02:00,32.9,20.5,30.43,NNW,342,0.0,0.0,60,0.00,,,0.00,VWS V14.00,2013-01-08 14:02:00,
2013-01-08 09:07:00,33.3,20.9,30.43,NNW,342,0.0,0.0,60,0.00,,,0.00,VWS V14.00,2013-01-08 14:07:00,
2013-01-08 09:12:00,33.4,21.1,30.43,NNW,342,0.0,0.0,60,0.00,,,0.00,VWS V14.00,2013-01-08 14:12:00,
2013-01-08 09:17:00,33.8,21.0,30.43,NNW,342,0.0,0.0,59,0.00,,,0.00,VWS V14.00,2013-01-08 14:17:00,
2013-01-08 09:22:00,34.2,21.7,30.43,NNW,342,0.0,0.0,60,0.00,,,0.00,VWS V14.00,2013-01-08 14:22:00,
2013-01-08 09:27:00,34.5,21.7,30.43,NNW,342,0.0,0.0,59,0.00,,,0.00,VWS V14.00,2013-01-08 14:27:00,
2013-01-08 09:32:00,34.7,21.5,30.46,NNW,342,0.0,0.0,58,0.00,,,0.00,VWS V14.00,2013-01-08 14:32:00,
2013-01-08 09:37:00,34.5,21.3,30.46,NNW,342,0.0,0.0,58,0.00,,,0.00,VWS V14.00,2013-01-08 14:37:00,
2013-01-08 09:42:00,34.5,21.3,30.46,NNW,342,0.0,0.0,58,0.00,,,0.00,VWS V14.00,2013-01-08 14:42:00,
2013-01-08 09:47:00,35.1,21.8,30.46,NNW,342,0.0,0.0,58,0.00,,,0.00,VWS V14.00,2013-01-08 14:47:00,
2013-01-08 09:52:00,35.6,22.3,30.46,NNW,342,0.0,0.0,58,0.00,,,0.00,VWS V14.00,2013-01-08 14:52:00,
2013-01-08 09:57:00,35.8,22.0,30.46,NNW,342,0.0,0.0,57,0.00,,,0.00,VWS V14.00,2013-01-08 14:57:00,
2013-01-08 10:02:00,36.1,22.4,30.46,NNW,342,0.0,0.0,57,0.00,,,0.00,VWS V14.00,2013-01-08 15:02:00,
2013-01-08 10:07:00,36.9,23.1,30.46,NNW,342,0.0,0.0,57,0.00,,,0.00,VWS V14.00,2013-01-08 15:07:00,
2013-01-08 10:12:00,37.2,23.4,30.46,NNW,342,0.0,0.0,57,0.00,,,0.00,VWS V14.00,2013-01-08 15:12:00,
2013-01-08 10:17:00,37.4,22.7,30.43,NNW,342,0.0,0.0,55,0.00,,,0.00,VWS V14.00,2013-01-08 15:17:00,
2013-01-08 10:22:00,37.4,22.7,30.43,NNW,342,0.0,0.0,55,0.00,,,0.00,VWS V14.00,2013-01-08 15:22:00,
2013-01-08 10:27:00,37.6,22.9,30.43,NNW,342,0.0,0.0,55,0.00,,,0.00,VWS V14.00,2013-01-08 15:27:00,
2013-01-08 10:32:00,38.5,23.7,30.43,NNW,342,0.0,0.0,55,0.00,,,0.00,VWS V14.00,2013-01-08 15:32:00,
2013-01-08 10:37:00,39.2,24.0,30.43,NNW,342,0.0,0.0,54,0.00,,,0.00,VWS V14.00,2013-01-08 15:37:00,
2013-01-08 10:42:00,40.1,24.8,30.43,NNW,342,0.0,0.0,54,0.00,,,0.00,VWS V14.00,2013-01-08 15:42:00,
2013-01-08 10:47:00,40.8,24.6,30.43,NNW,342,0.0,0.0,52,0.00,,,0.00,VWS V14.00,2013-01-08 15:47:00,
2013-01-08 10:52:00,41.2,24.0,30.43,NNW,342,0.0,0.0,50,0.00,,,0.00,VWS V14.00,2013-01-08 15:52:00,
2013-01-08 10:57:00,41.5,23.3,30.43,NNW,342,0.0,0.0,48,0.00,,,0.00,VWS V14.00,2013-01-08 15:57:00,
2013-01-08 11:02:00,41.7,23.0,30.43,NNW,342,0.0,0.0,47,0.00,,,0.00,VWS V14.00,2013-01-08 16:02:00,
2013-01-08 11:07:00,41.9,23.2,30.43,NNW,342,0.0,0.0,47,0.00,,,0.00,VWS V14.00,2013-01-08 16:07:00,
2013-01-08 11:12:00,42.4,23.1,30.43,NNW,342,0.0,0.0,46,0.00,,,0.00,VWS V14.00,2013-01-08 16:12:00,
2013-01-08 11:17:00,42.8,23.0,30.43,NNW,342,0.0,0.0,45,0.00,,,0.00,VWS V14.00,2013-01-08 16:17:00,
2013-01-08 11:22:00,43.0,22.6,30.43,NNW,342,0.0,0.0,44,0.00,,,0.00,VWS V14.00,2013-01-08 16:22:00,
2013-01-08 11:27:00,43.3,22.9,30.43,NNW,342,0.0,0.0,44,0.00,,,0.00,VWS V14.00,2013-01-08 16:27:00,
2013-01-08 11:32:00,43.5,22.0,30.40,North,357,2.7,3.6,42,0.00,,,0.00,VWS V14.00,2013-01-08 16:32:00,
2013-01-08 11:37:00,43.9,21.7,30.40,NNE,18,0.0,0.0,41,0.00,,,0.00,VWS V14.00,2013-01-08 16:37:00,
2013-01-08 11:42:00,44.2,21.5,30.40,North,8,0.0,0.0,40,0.00,,,0.00,VWS V14.00,2013-01-08 16:42:00,
2013-01-08 11:47:00,44.6,21.8,30.40,North,357,2.7,2.7,40,0.00,,,0.00,VWS V14.00,2013-01-08 16:47:00,
2013-01-08 11:53:00,45.1,21.7,30.40,North,3,0.0,0.0,39,0.00,,,0.00,VWS V14.00,2013-01-08 16:53:00,
2013-01-08 11:58:00,45.3,21.8,30.40,North,0,3.1,4.9,39,0.00,,,0.00,VWS V14.00,2013-01-08 16:58:00,
2013-01-08 12:03:00,45.5,21.4,30.37,North,6,2.7,2.7,38,0.00,,,0.00,VWS V14.00,2013-01-08 17:03:00,
2013-01-08 12:08:00,46.0,21.9,30.37,SE,137,0.0,0.0,38,0.00,,,0.00,VWS V14.00,2013-01-08 17:08:00,
2013-01-08 12:13:00,46.2,22.0,30.37,North,4,3.1,3.1,38,0.00,,,0.00,VWS V14.00,2013-01-08 17:13:00,
2013-01-08 12:18:00,46.4,21.6,30.37,North,7,4.0,4.0,37,0.00,,,0.00,VWS V14.00,2013-01-08 17:18:00,
2013-01-08 12:23:00,46.6,21.7,30.37,North,6,5.8,5.8,37,0.00,,,0.00,VWS V14.00,2013-01-08 17:23:00,
2013-01-08 12:28:00,46.8,21.2,30.37,North,0,2.7,2.7,36,0.00,,,0.00,VWS V14.00,2013-01-08 17:28:00,
2013-01-08 12:33:00,46.9,21.4,30.37,North,5,0.0,0.0,36,0.00,,,0.00,VWS V14.00,2013-01-08 17:33:00,
2013-01-08 12:38:00,47.1,21.6,30.37,NW,306,3.1,3.1,36,0.00,,,0.00,VWS V14.00,2013-01-08 17:38:00,
2013-01-08 12:43:00,47.3,21.0,30.37,NNE,21,0.0,0.0,35,0.00,,,0.00,VWS V14.00,2013-01-08 17:43:00,
2013-01-08 12:48:00,47.7,21.4,30.37,SSE,149,0.0,0.0,35,0.00,,,0.00,VWS V14.00,2013-01-08 17:48:00,
2013-01-08 12:53:00,48.0,21.0,30.37,East,89,0.0,0.0,34,0.00,,,0.00,VWS V14.00,2013-01-08 17:53:00,
2013-01-08 12:58:00,48.2,20.5,30.37,ENE,66,2.7,2.7,33,0.00,,,0.00,VWS V14.00,2013-01-08 17:58:00,
2013-01-08 13:03:00,48.6,20.8,30.37,NNE,14,3.1,4.0,33,0.00,,,0.00,VWS V14.00,2013-01-08 18:03:00,
2013-01-08 13:08:00,48.7,20.9,30.37,NNE,14,0.0,0.0,33,0.00,,,0.00,VWS V14.00,2013-01-08 18:08:00,
2013-01-08 13:13:00,48.9,19.6,30.37,NNE,18,3.1,3.6,31,0.00,,,0.00,VWS V14.00,2013-01-08 18:13:00,
2013-01-08 13:18:00,49.3,20.7,30.35,North,357,2.2,2.7,32,0.00,,,0.00,VWS V14.00,2013-01-08 18:18:00,
2013-01-08 13:23:00,49.5,20.1,30.35,NNE,17,2.2,4.0,31,0.00,,,0.00,VWS V14.00,2013-01-08 18:23:00,
2013-01-08 13:28:00,49.8,20.4,30.35,North,4,3.6,3.6,31,0.00,,,0.00,VWS V14.00,2013-01-08 18:28:00,
2013-01-08 13:33:00,50.2,20.7,30.35,North,6,3.1,3.6,31,0.00,,,0.00,VWS V14.00,2013-01-08 18:33:00,
2013-01-08 13:38:00,50.2,20.7,30.35,North,353,0.0,4.0,31,0.00,,,0.00,VWS V14.00,2013-01-08 18:38:00,
2013-01-08 13:43:00,50.2,20.7,30.35,North,9,4.0,5.4,31,0.00,,,0.00,VWS V14.00,2013-01-08 18:43:00,
2013-01-08 13:48:00,50.2,20.7,30.35,North,10,2.7,2.7,31,0.00,,,0.00,VWS V14.00,2013-01-08 18:48:00,
2013-01-08 13:53:00,50.2,21.5,30.35,North,3,4.0,4.0,32,0.00,,,0.00,VWS V14.00,2013-01-08 18:53:00,
2013-01-08 13:58:00,50.5,21.8,30.35,NE,49,3.1,3.6,32,0.00,,,0.00,VWS V14.00,2013-01-08 18:58:00,
2013-01-08 14:03:00,50.7,22.7,30.35,North,0,3.1,4.5,33,0.00,,,0.00,VWS V14.00,2013-01-08 19:03:00,
2013-01-08 14:08:00,51.3,22.4,30.35,North,4,0.0,0.0,32,0.00,,,0.00,VWS V14.00,2013-01-08 19:08:00,
2013-01-08 14:13:00,51.6,22.7,30.35,North,10,0.0,0.0,32,0.00,,,0.00,VWS V14.00,2013-01-08 19:13:00,
2013-01-08 14:18:00,51.6,22.7,30.32,North,357,0.0,0.0,32,0.00,,,0.00,VWS V14.00,2013-01-08 19:18:00,
2013-01-08 14:23:00,51.8,22.9,30.32,North,5,3.1,3.1,32,0.00,,,0.00,VWS V14.00,2013-01-08 19:23:00,
2013-01-08 14:28:00,51.6,23.5,30.32,NNE,21,4.9,4.9,33,0.00,,,0.00,VWS V14.00,2013-01-08 19:28:00,
2013-01-08 14:33:00,51.4,23.3,30.32,North,2,2.7,4.0,33,0.00,,,0.00,VWS V14.00,2013-01-08 19:33:00,
2013-01-08 14:38:00,50.9,23.5,30.32,NNE,27,0.0,3.1,34,0.00,,,0.00,VWS V14.00,2013-01-08 19:38:00,
2013-01-08 14:43:00,50.9,23.5,30.32,North,357,2.7,4.0,34,0.00,,,0.00,VWS V14.00,2013-01-08 19:43:00,
2013-01-08 14:48:00,50.9,24.2,30.35,NNW,345,2.7,3.1,35,0.00,,,0.00,VWS V14.00,2013-01-08 19:48:00,
2013-01-08 14:53:00,50.9,24.2,30.35,NNW,345,0.0,0.0,35,0.00,,,0.00,VWS V14.00,2013-01-08 19:53:00,
2013-01-08 14:58:00,50.7,24.8,30.35,NNW,345,0.0,0.0,36,0.00,,,0.00,VWS V14.00,2013-01-08 19:58:00,
2013-01-08 15:03:00,50.7,24.8,30.35,NNW,345,0.0,0.0,36,0.00,,,0.00,VWS V14.00,2013-01-08 20:03:00,
2013-01-08 15:08:00,51.1,25.1,30.35,North,353,0.0,0.0,36,0.00,,,0.00,VWS V14.00,2013-01-08 20:08:00,
2013-01-08 15:13:00,51.3,25.9,30.35,North,2,0.0,0.0,37,0.00,,,0.00,VWS V14.00,2013-01-08 20:13:00,
2013-01-08 15:18:00,51.3,25.9,30.35,North,9,3.6,4.9,37,0.00,,,0.00,VWS V14.00,2013-01-08 20:18:00,
2013-01-08 15:23:00,51.3,25.9,30.35,NNE,27,0.0,0.0,37,0.00,,,0.00,VWS V14.00,2013-01-08 20:23:00,
2013-01-08 15:28:00,51.1,25.7,30.35,NE,49,2.7,3.1,37,0.00,,,0.00,VWS V14.00,2013-01-08 20:28:00,
2013-01-08 15:33:00,51.3,25.9,30.35,North,4,3.6,4.9,37,0.00,,,0.00,VWS V14.00,2013-01-08 20:33:00,
2013-01-08 15:38:00,51.4,26.0,30.35,NNE,29,2.7,3.1,37,0.00,,,0.00,VWS V14.00,2013-01-08 20:38:00,
2013-01-08 15:43:00,51.4,25.4,30.35,South,187,3.1,3.1,36,0.00,,,0.00,VWS V14.00,2013-01-08 20:43:00,
2013-01-08 15:48:00,51.3,25.2,30.32,NE,55,0.0,0.0,36,0.00,,,0.00,VWS V14.00,2013-01-08 20:48:00,
2013-01-08 15:53:00,51.1,25.7,30.32,NNE,21,0.0,0.0,37,0.00,,,0.00,VWS V14.00,2013-01-08 20:53:00,
2013-01-08 15:58:00,51.1,25.7,30.32,NNE,23,3.1,3.6,37,0.00,,,0.00,VWS V14.00,2013-01-08 20:58:00,
2013-01-08 16:03:00,50.9,25.6,30.32,North,0,0.0,3.1,37,0.00,,,0.00,VWS V14.00,2013-01-08 21:03:00,
2013-01-08 16:08:00,50.7,25.4,30.32,North,0,0.0,0.0,37,0.00,,,0.00,VWS V14.00,2013-01-08 21:08:00,
2013-01-08 16:13:00,50.5,25.2,30.32,North,9,0.0,0.0,37,0.00,,,0.00,VWS V14.00,2013-01-08 21:13:00,
2013-01-08 16:18:00,50.4,25.1,30.32,North,5,0.0,0.0,37,0.00,,,0.00,VWS V14.00,2013-01-08 21:18:00,
2013-01-08 16:24:00,50.4,25.1,30.32,North,5,0.0,0.0,37,0.00,,,0.00,VWS V14.00,2013-01-08 21:24:00,
2013-01-08 16:29:00,50.2,24.9,30.32,North,5,0.0,0.0,37,0.00,,,0.00,VWS V14.00,2013-01-08 21:29:00,
2013-01-08 16:34:00,50.2,24.9,30.35,North,5,0.0,0.0,37,0.00,,,0.00,VWS V14.00,2013-01-08 21:34:00,
2013-01-08 16:39:00,50.0,25.4,30.35,North,5,0.0,0.0,38,0.00,,,0.00,VWS V14.00,2013-01-08 21:39:00,
2013-01-08 16:44:00,49.8,25.2,30.35,North,5,0.0,0.0,38,0.00,,,0.00,VWS V14.00,2013-01-08 21:44:00,
2013-01-08 16:49:00,49.8,25.2,30.35,North,6,0.0,0.0,38,0.00,,,0.00,VWS V14.00,2013-01-08 21:49:00,
2013-01-08 16:54:00,49.6,25.7,30.35,North,6,0.0,0.0,39,0.00,,,0.00,VWS V14.00,2013-01-08 21:54:00,
2013-01-08 16:59:00,49.8,25.9,30.35,North,6,0.0,0.0,39,0.00,,,0.00,VWS V14.00,2013-01-08 21:59:00,
2013-01-08 17:04:00,49.6,25.7,30.35,North,6,0.0,0.0,39,0.00,,,0.00,VWS V14.00,2013-01-08 22:04:00,
2013-01-08 17:09:00,49.5,25.5,30.35,North,6,0.0,0.0,39,0.00,,,0.00,VWS V14.00,2013-01-08 22:09:00,
2013-01-08 17:14:00,49.3,25.4,30.35,North,6,0.0,0.0,39,0.00,,,0.00,VWS V14.00,2013-01-08 22:14:00,
2013-01-08 17:19:00,48.9,25.1,30.35,North,7,0.0,0.0,39,0.00,,,0.00,VWS V14.00,2013-01-08 22:19:00,
2013-01-08 17:24:00,48.9,25.1,30.35,North,11,0.0,0.0,39,0.00,,,0.00,VWS V14.00,2013-01-08 22:24:00,
2013-01-08 17:29:00,48.6,25.4,30.35,North,11,0.0,0.0,40,0.00,,,0.00,VWS V14.00,2013-01-08 22:29:00,
2013-01-08 17:34:00,48.2,25.0,30.35,North,11,0.0,0.0,40,0.00,,,0.00,VWS V14.00,2013-01-08 22:34:00,
2013-01-08 17:39:00,47.8,24.7,30.35,North,11,0.0,0.0,40,0.00,,,0.00,VWS V14.00,2013-01-08 22:39:00,
2013-01-08 17:44:00,47.5,24.4,30.35,North,11,0.0,0.0,40,0.00,,,0.00,VWS V14.00,2013-01-08 22:44:00,
2013-01-08 17:49:00,47.3,24.8,30.35,North,11,0.0,0.0,41,0.00,,,0.00,VWS V14.00,2013-01-08 22:49:00,
2013-01-08 17:54:00,46.9,24.5,30.35,North,11,0.0,0.0,41,0.00,,,0.00,VWS V14.00,2013-01-08 22:54:00,
2013-01-08 17:59:00,46.8,24.3,30.35,North,11,0.0,0.0,41,0.00,,,0.00,VWS V14.00,2013-01-08 22:59:00,
2013-01-08 18:04:00,46.4,24.6,30.35,North,11,0.0,0.0,42,0.00,,,0.00,VWS V14.00,2013-01-08 23:04:00,
2013-01-08 18:09:00,46.2,24.4,30.35,North,11,0.0,0.0,42,0.00,,,0.00,VWS V14.00,2013-01-08 23:09:00,
2013-01-08 18:14:00,46.0,24.8,30.35,North,11,0.0,0.0,43,0.00,,,0.00,VWS V14.00,2013-01-08 23:14:00,
2013-01-08 18:19:00,45.9,24.6,30.35,North,11,0.0,0.0,43,0.00,,,0.00,VWS V14.00,2013-01-08 23:19:00,
2013-01-08 18:24:00,45.7,25.0,30.35,North,11,0.0,0.0,44,0.00,,,0.00,VWS V14.00,2013-01-08 23:24:00,
2013-01-08 18:29:00,45.3,24.7,30.35,North,11,0.0,0.0,44,0.00,,,0.00,VWS V14.00,2013-01-08 23:29:00,
2013-01-08 18:34:00,45.1,24.5,30.35,North,11,0.0,0.0,44,0.00,,,0.00,VWS V14.00,2013-01-08 23:34:00,
2013-01-08 18:39:00,45.0,24.9,30.35,North,11,0.0,0.0,45,0.00,,,0.00,VWS V14.00,2013-01-08 23:39:00,
2013-01-08 18:44:00,44.8,24.8,30.35,North,11,0.0,0.0,45,0.00,,,0.00,VWS V14.00,2013-01-08 23:44:00,
2013-01-08 18:49:00,44.6,25.1,30.37,North,11,0.0,0.0,46,0.00,,,0.00,VWS V14.00,2013-01-08 23:49:00,
2013-01-08 18:54:00,44.6,25.1,30.37,North,11,0.0,0.0,46,0.00,,,0.00,VWS V14.00,2013-01-08 23:54:00,
2013-01-08 18:59:00,44.8,25.8,30.37,North,11,0.0,0.0,47,0.00,,,0.00,VWS V14.00,2013-01-08 23:59:00,
2013-01-08 19:05:00,44.6,25.6,30.37,North,11,0.0,0.0,47,0.00,,,0.00,VWS V14.00,2013-01-09 00:05:00,
2013-01-08 19:10:00,44.8,25.8,30.37,North,11,0.0,0.0,47,0.00,,,0.00,VWS V14.00,2013-01-09 00:10:00,
2013-01-08 19:15:00,45.0,26.5,30.37,North,11,0.0,0.0,48,0.00,,,0.00,VWS V14.00,2013-01-09 00:15:00,
2013-01-08 19:20:00,45.1,26.6,30.37,North,11,0.0,0.0,48,0.00,,,0.00,VWS V14.00,2013-01-09 00:20:00,
2013-01-08 19:25:00,45.1,26.6,30.37,North,11,0.0,0.0,48,0.00,,,0.00,VWS V14.00,2013-01-09 00:25:00,
2013-01-08 19:30:00,45.3,26.8,30.37,North,11,0.0,0.0,48,0.00,,,0.00,VWS V14.00,2013-01-09 00:30:00,
2013-01-08 19:35:00,45.3,26.8,30.37,North,11,0.0,0.0,48,0.00,,,0.00,VWS V14.00,2013-01-09 00:35:00,
2013-01-08 19:40:00,45.3,26.8,30.37,North,11,0.0,0.0,48,0.00,,,0.00,VWS V14.00,2013-01-09 00:40:00,
2013-01-08 19:45:00,45.3,26.8,30.37,North,11,0.0,0.0,48,0.00,,,0.00,VWS V14.00,2013-01-09 00:45:00,
2013-01-08 19:50:00,45.3,26.8,30.35,North,11,0.0,0.0,48,0.00,,,0.00,VWS V14.00,2013-01-09 00:50:00,
2013-01-08 19:55:00,45.1,26.6,30.35,North,11,0.0,0.0,48,0.00,,,0.00,VWS V14.00,2013-01-09 00:55:00,
2013-01-08 20:00:00,45.0,26.5,30.35,North,11,0.0,0.0,48,0.00,,,0.00,VWS V14.00,2013-01-09 01:00:00,
2013-01-08 20:05:00,44.6,26.1,30.37,North,11,0.0,0.0,48,0.00,,,0.00,VWS V14.00,2013-01-09 01:05:00,
2013-01-08 20:10:00,44.4,26.5,30.37,North,11,0.0,0.0,49,0.00,,,0.00,VWS V14.00,2013-01-09 01:10:00,
2013-01-08 20:15:00,44.4,26.5,30.37,North,11,0.0,0.0,49,0.00,,,0.00,VWS V14.00,2013-01-09 01:15:00,
2013-01-08 20:20:00,44.4,26.5,30.35,North,11,0.0,0.0,49,0.00,,,0.00,VWS V14.00,2013-01-09 01:20:00,
2013-01-08 20:25:00,44.1,26.1,30.35,North,11,0.0,0.0,49,0.00,,,0.00,VWS V14.00,2013-01-09 01:25:00,
2013-01-08 20:30:00,43.5,25.6,30.35,North,11,0.0,0.0,49,0.00,,,0.00,VWS V14.00,2013-01-09 01:30:00,
2013-01-08 20:35:00,43.0,25.6,30.37,North,11,0.0,0.0,50,0.00,,,0.00,VWS V14.00,2013-01-09 01:35:00,
2013-01-08 20:40:00,43.0,25.6,30.37,North,11,0.0,0.0,50,0.00,,,0.00,VWS V14.00,2013-01-09 01:40:00,
2013-01-08 20:45:00,42.8,25.9,30.37,North,11,0.0,0.0,51,0.00,,,0.00,VWS V14.00,2013-01-09 01:45:00,
2013-01-08 20:50:00,42.3,25.4,30.37,North,11,0.0,0.0,51,0.00,,,0.00,VWS V14.00,2013-01-09 01:50:00,
2013-01-08 20:55:00,42.3,25.4,30.37,North,11,0.0,0.0,51,0.00,,,0.00,VWS V14.00,2013-01-09 01:55:00,
2013-01-08 21:00:00,42.3,25.4,30.37,North,11,0.0,0.0,51,0.00,,,0.00,VWS V14.00,2013-01-09 02:00:00,
2013-01-08 21:05:00,42.3,25.9,30.37,North,11,0.0,0.0,52,0.00,,,0.00,VWS V14.00,2013-01-09 02:05:00,
2013-01-08 21:11:00,42.1,25.7,30.37,North,11,0.0,0.0,52,0.00,,,0.00,VWS V14.00,2013-01-09 02:11:00,
2013-01-08 21:16:00,41.5,25.2,30.37,North,11,0.0,0.0,52,0.00,,,0.00,VWS V14.00,2013-01-09 02:16:00,
2013-01-08 21:21:00,41.2,25.4,30.37,North,11,0.0,0.0,53,0.00,,,0.00,VWS V14.00,2013-01-09 02:21:00,
2013-01-08 21:26:00,41.2,25.4,30.37,North,11,0.0,0.0,53,0.00,,,0.00,VWS V14.00,2013-01-09 02:26:00,
2013-01-08 21:31:00,41.5,25.7,30.37,North,11,0.0,0.0,53,0.00,,,0.00,VWS V14.00,2013-01-09 02:31:00,
2013-01-08 21:36:00,41.7,25.9,30.37,North,11,0.0,0.0,53,0.00,,,0.00,VWS V14.00,2013-01-09 02:36:00,
2013-01-08 21:41:00,42.3,26.8,30.37,North,11,0.0,0.0,54,0.00,,,0.00,VWS V14.00,2013-01-09 02:41:00,
2013-01-08 21:46:00,42.3,26.4,30.37,North,11,0.0,0.0,53,0.00,,,0.00,VWS V14.00,2013-01-09 02:46:00,
2013-01-08 21:51:00,42.3,26.4,30.37,North,11,0.0,0.0,53,0.00,,,0.00,VWS V14.00,2013-01-09 02:51:00,
2013-01-08 21:56:00,42.1,26.2,30.37,North,11,0.0,0.0,53,0.00,,,0.00,VWS V14.00,2013-01-09 02:56:00,
2013-01-08 22:01:00,41.9,26.0,30.37,North,11,0.0,0.0,53,0.00,,,0.00,VWS V14.00,2013-01-09 03:01:00,
2013-01-08 22:06:00,41.7,25.9,30.37,North,11,0.0,0.0,53,0.00,,,0.00,VWS V14.00,2013-01-09 03:06:00,
2013-01-08 22:11:00,41.5,25.7,30.37,North,11,0.0,0.0,53,0.00,,,0.00,VWS V14.00,2013-01-09 03:11:00,
2013-01-08 22:16:00,41.4,25.5,30.37,North,11,0.0,0.0,53,0.00,,,0.00,VWS V14.00,2013-01-09 03:16:00,
2013-01-08 22:21:00,41.2,25.4,30.37,North,11,0.0,0.0,53,0.00,,,0.00,VWS V14.00,2013-01-09 03:21:00,
2013-01-08 22:26:00,41.2,25.4,30.37,North,11,0.0,0.0,53,0.00,,,0.00,VWS V14.00,2013-01-09 03:26:00,
2013-01-08 22:31:00,41.2,25.8,30.37,North,11,0.0,0.0,54,0.00,,,0.00,VWS V14.00,2013-01-09 03:31:00,
2013-01-08 22:36:00,41.0,25.2,30.37,North,11,0.0,0.0,53,0.00,,,0.00,VWS V14.00,2013-01-09 03:36:00,
2013-01-08 22:41:00,41.0,25.6,30.37,North,11,0.0,0.0,54,0.00,,,0.00,VWS V14.00,2013-01-09 03:41:00,
2013-01-08 22:46:00,41.0,25.6,30.37,North,11,0.0,0.0,54,0.00,,,0.00,VWS V14.00,2013-01-09 03:46:00,
2013-01-08 22:51:00,41.0,25.6,30.37,North,11,0.0,0.0,54,0.00,,,0.00,VWS V14.00,2013-01-09 03:51:00,
2013-01-08 22:56:00,41.4,26.4,30.37,North,11,0.0,0.0,55,0.00,,,0.00,VWS V14.00,2013-01-09 03:56:00,
2013-01-08 23:01:00,41.5,26.1,30.37,North,11,0.0,0.0,54,0.00,,,0.00,VWS V14.00,2013-01-09 04:01:00,
2013-01-08 23:06:00,41.0,25.6,30.37,North,11,0.0,0.0,54,0.00,,,0.00,VWS V14.00,2013-01-09 04:06:00,
2013-01-08 23:11:00,40.3,24.5,30.37,North,11,0.0,0.0,53,0.00,,,0.00,VWS V14.00,2013-01-09 04:11:00,
2013-01-08 23:16:00,39.6,23.9,30.37,North,11,0.0,0.0,53,0.00,,,0.00,VWS V14.00,2013-01-09 04:16:00,
2013-01-08 23:21:00,39.4,24.1,30.37,North,11,0.0,0.0,54,0.00,,,0.00,VWS V14.00,2013-01-09 04:21:00,
2013-01-08 23:26:00,39.4,24.6,30.37,North,11,0.0,0.0,55,0.00,,,0.00,VWS V14.00,2013-01-09 04:26:00,
2013-01-08 23:31:00,39.0,24.7,30.37,North,11,0.0,0.0,56,0.00,,,0.00,VWS V14.00,2013-01-09 04:31:00,
2013-01-08 23:36:00,38.7,24.3,30.37,North,11,0.0,0.0,56,0.00,,,0.00,VWS V14.00,2013-01-09 04:36:00,
2013-01-08 23:41:00,38.5,24.2,30.37,North,11,0.0,0.0,56,0.00,,,0.00,VWS V14.00,2013-01-09 04:41:00,
2013-01-08 23:46:00,38.7,24.8,30.37,North,11,0.0,0.0,57,0.00,,,0.00,VWS V14.00,2013-01-09 04:46:00,
2013-01-08 23:51:00,39.6,26.0,30.37,North,11,0.0,0.0,58,0.00,,,0.00,VWS V14.00,2013-01-09 04:51:00,
2013-01-08 23:56:00,40.1,26.5,30.37,North,11,0.0,0.0,58,0.00,,,0.00,VWS V14.00,2013-01-09 04:56:00,